#timestamp,LO_Frequency,Hit,StdDev 
1607878815.8,286047002.6,N
1607878835.6,286047002.8,N
1607878855.5,286047001.0,N
1607878875.3,286046999.9,N
1607878895.1,286047000.0,N
1607878915.9,286047002.7,N
1607878935.7,286047002.8,N
1607878955.5,286047001.8,N
1607878975.4,286047001.8,N
1607878995.2,286047002.8,N
1607879015.0,286047002.8,N
1607879015.9,286047002.8,N
1607879035.8,286046999.7,N
1607879055.6,286047002.2,N
1607879075.4,286047002.6,N
1607879095.3,286047000.4,N
1607879115.1,286047000.7,N
1607879116.0,286047000.7,N
1607879135.8,286047000.4,N
1607879155.7,286047000.1,N
1607879175.5,286047002.0,N
1607879195.3,286047002.3,N
1607879215.2,286046999.8,N
1607879235.9,286046999.7,N
1607879255.7,286047000.5,N
1607879275.6,286047000.4,N
1607879295.4,286047000.6,N
1607879315.2,286047000.9,N
1607879335.1,286047000.7,N
1607879336.0,286047000.7,N
1607879355.8,286047000.7,N
1607879375.6,286046999.8,N
1607879395.5,286047000.5,N
1607879415.3,286047000.4,N
1607879435.1,286047000.0,N
1607879455.9,286047002.7,N
1607879475.7,286047000.1,N
1607879495.5,286047002.6,N
1607879515.3,286047002.2,N
1607879535.2,286047002.5,N
1607879555.0,286047002.0,N
1607879555.9,286047002.0,N
1607879575.7,286047001.7,N
1607879595.6,286047001.3,N
1607879615.4,286047001.8,N
1607879635.2,286047001.9,N
1607879655.1,286047001.6,N
1607879656.0,286047001.6,N
1607879675.8,286047001.8,N
1607879695.6,286047004.2,Y
1607879715.5,286047002.6,P
1607879735.3,286047002.4,P
1607879755.1,286047002.7,P
1607879775.9,286047002.3,Y
1607879795.7,286046999.2,P
1607879815.5,286046998.7,N
1607879835.4,286046998.8,N
1607879855.2,286046999.4,N
1607879875.0,286046998.5,N
1607879875.9,286046998.5,N
1607879895.8,286047001.0,N
1607879915.6,286046998.2,N
1607879935.4,286046998.7,N
1607879955.3,286046999.0,N
1607879975.1,286046998.9,N
1607879995.8,286046998.6,N
1607880015.7,286047001.0,N
1607880035.5,286046998.1,N
1607880055.3,286047000.9,N
1607880075.2,286047001.1,N
1607880095.9,286047000.6,N
1607880115.7,286046999.9,N
1607880135.6,286047000.6,N
1607880155.4,286047000.6,N
1607880175.2,286047000.8,N
1607880195.1,286047001.2,N
1607880196.0,286047001.2,N
1607880215.8,286047001.1,N
1607880235.6,286046998.1,N
1607880255.5,286047000.5,N
1607880275.3,286047001.0,N
1607880295.1,286047000.5,N
1607880315.9,286046999.9,N
1607880335.7,286047001.2,N
1607880355.5,286047000.3,N
1607880375.3,286047000.9,N
1607880395.2,286046998.9,N
1607880415.0,286047000.8,N
1607880415.9,286047000.8,N
1607880435.8,286046998.5,N
1607880455.6,286047001.0,N
1607880475.4,286047000.4,N
1607880495.2,286046999.8,N
1607880515.1,286047001.4,N
1607880516.0,286047001.4,N
1607880535.8,286047002.4,N
1607880555.6,286047000.2,N
1607880575.5,286047002.3,N
1607880595.3,286047002.8,Y
1607880615.1,286046998.1,P
1607880635.9,286046999.3,N
1607880655.7,286046999.3,N
1607880675.5,286046998.8,N
1607880695.4,286046998.6,N
1607880715.2,286046998.8,N
1607880735.0,286046998.3,N
1607880735.9,286046998.3,N
1607880755.8,286046999.4,N
1607880775.6,286047001.0,N
1607880795.4,286047000.9,N
1607880815.3,286047000.6,N
1607880835.1,286047000.5,N
1607880855.8,286047000.3,N
1607880875.7,286047000.7,N
1607880895.5,286047000.8,N
1607880915.3,286047001.1,N
1607880935.2,286047000.6,N
1607880955.9,286047000.3,N
1607880975.7,286047000.7,N
1607880995.6,286046998.8,N
1607881015.4,286046998.6,N
1607881035.2,286046999.0,N
1607881055.1,286046998.4,N
1607881056.0,286046998.4,N
1607881075.8,286046999.4,N
1607881095.6,286046998.9,N
1607881115.5,286047001.1,N
1607881135.3,286046999.4,N
1607881155.1,286046999.2,N
1607881175.8,286046999.0,N
1607881195.7,286046998.3,N
1607881215.5,286046999.5,N
1607881235.3,286046999.6,N
1607881255.2,286046997.4,N
1607881275.0,286046999.2,N
1607881275.9,286046999.2,N
1607881295.7,286046996.8,Y
1607881315.6,286046997.7,P
1607881335.4,286046996.6,P
1607881355.2,286046997.7,N
1607881375.1,286046996.6,Y
1607881376.0,286046996.6,P
1607881395.8,286047000.5,N
1607881415.6,286047001.0,N
1607881435.5,286046998.7,N
1607881455.3,286046998.5,N
1607881475.1,286047001.2,N
1607881495.9,286047001.2,N
1607881515.7,286047000.4,N
1607881535.5,286046998.5,N
1607881555.4,286046999.3,N
1607881575.2,286046998.8,N
1607881595.0,286046998.7,N
1607881595.9,286046998.7,N
1607881615.8,286046999.4,N
1607881635.6,286046999.3,N
1607881655.4,286046996.5,N
1607881675.3,286046999.6,N
1607881695.1,286046997.1,N
1607881696.0,286046997.1,N
1607881715.8,286046999.6,N
1607881735.7,286046999.1,N
1607881755.5,286046997.0,N
1607881775.3,286046997.0,N
1607881795.2,286046997.7,N
1607881815.9,286046997.2,N
1607881835.7,286046999.1,N
1607881855.6,286046998.9,N
1607881875.4,286047000.5,N
1607881895.2,286046998.9,N
1607881915.1,286046998.4,N
1607881916.0,286046998.4,N
1607881935.8,286046999.4,N
1607881955.6,286046999.2,N
1607881975.5,286046996.7,N
1607881995.3,286046997.0,N
1607882015.1,286046998.0,N
1607882035.8,286046997.5,N
1607882055.7,286046997.2,N
1607882075.5,286046998.7,N
1607882095.3,286046997.1,N
1607882115.2,286046997.6,N
1607882135.0,286046997.9,N
1607882135.9,286046997.9,N
1607882155.7,286046997.2,N
1607882175.6,286046996.0,Y
1607882195.4,286046999.2,P
1607882215.2,286046996.6,P
1607882235.1,286046997.3,N
1607882236.0,286046997.3,N
1607882255.8,286046997.6,N
1607882275.6,286046995.6,Y
1607882295.5,286046999.3,P
1607882315.3,286046998.8,N
1607882335.1,286046996.5,P
1607882355.9,286046996.5,Y
1607882375.7,286047001.0,P
1607882395.5,286047001.1,N
